sat.trackr.live / text

‹ back to catalog

STARLINK-1788

NORAD 46689 · 2020-073V

PAYLOAD ACTIVE UNKNOWN

§ Identity

Operator
Country
US
Launch date
2020-10-18
Launch site
AFETR
Launch vehicle
Mass (kg)
RCS (m²)

Purposes: comms

External: N2YO · Heavens-Above · Gunter

§ Orbital elements

Epoch: 2026-05-25T04:13:25.200768Z

Period
91.19 min
Inclination
53.0339°
Eccentricity
0.0007213
Mean motion
15.79052233 rev/d
Perigee alt
328.3 km
Apogee alt
338.0 km
Semi-major
6,711.3 km
B*
7.9949e-4
RAAN
199.8470°
Arg perigee
352.2063°
Mean anomaly
7.8844°
Rev number
31,072

§ Raw data

STARLINK-17881 46689U 20073V   26145.17598612  .00147261  00000+0  79949-3 0  99932 46689  53.0339 199.8470 0007213 352.2063   7.8844 15.79052233310721

JSON: /api/v1/satellites/46689 · /tle

For live sub-satellite position, see the globe view (requires WebGL).

§ Visibility from observer

Set your observer location to see the next 7 days of passes ≥ 10°. The values pass through the URL so the page stays shareable.

No JS? Fill the form by hand. The geolocation button needs JavaScript.